This is the latest recevied weather packets stored in our database for station/object VE1UHF-4. If no packets are shown the sender has not sent any weather packets the latest 1 day(s).
| Time | Temp. | Humidity | Pressure | Rain* | Wind** | Luminosity | Snow |
|---|---|---|---|---|---|---|---|
| 1778102398 | 22.78° C | 78% | 1006.1 hPa | 0 mm | - | - | - |
| 1778099696 | 22.78° C | 79% | 1005.8 hPa | 0 mm | - | - | - |
| 1778094293 | 23.33° C | 79% | 1006.5 hPa | 0 mm | - | - | - |
| 1778092492 | 23.33° C | 81% | 1006.7 hPa | 0 mm | - | - | - |
| 1778090691 | 23.89° C | 84% | 1007.1 hPa | 0 mm | - | - | - |
| 1778082586 | 18.89° C | 87% | 1007.2 hPa | 0 mm | - | - | - |
| 1778080785 | 18.33° C | 86% | 1007.6 hPa | 0 mm | - | - | - |
| 1778076282 | 17.22° C | 85% | 1007.7 hPa | 0 mm | - | - | - |
| 1778071780 | 16.67° C | 85% | 1007.6 hPa | 0 mm | - | - | - |
| 1778069078 | 16.67° C | 84% | 1007.4 hPa | 0 mm | - | - | - |
| 1778062774 | 15° C | 82% | 1006.1 hPa | 0 mm | - | - | - |
| 1778060072 | 15° C | 80% | 1006.1 hPa | 0 mm | - | - | - |
| 1778057368 | 15° C | 80% | 1005.7 hPa | 0 mm | - | - | - |
| 1778056467 | 15° C | 78% | 1005.6 hPa | 0 mm | - | - | - |
| 1778054666 | 15° C | 77% | 1005.4 hPa | 0 mm | - | - | - |
| 1778052865 | 15° C | 77% | 1005.7 hPa | 0 mm | - | - | - |
| 1778051064 | 15° C | 76% | 1005.7 hPa | 0 mm | - | - | - |
| 1778050163 | 15.56° C | 76% | 1005.6 hPa | 0 mm | - | - | - |
| 1778049263 | 15.56° C | 76% | 1005.3 hPa | 0 mm | - | - | - |
| 1778048362 | 15.56° C | 75% | 1005.1 hPa | 0 mm | - | - | - |
| 1778046561 | 16.11° C | 75% | 1004.9 hPa | 0 mm | - | - | - |
| 1778044760 | 16.11° C | 74% | 1005 hPa | 0 mm | - | - | - |
| 1778042959 | 16.67° C | 73% | 1005 hPa | 0 mm | - | - | - |
| 1778041158 | 17.22° C | 73% | 1004.6 hPa | 0 mm | - | - | - |
| 1778040257 | 17.22° C | 73% | 1004.6 hPa | 0 mm | - | - | - |
* Rain since midnight (hover to see other rain measurements)
** Current wind speed in m/s (hover to see current wind gust speed)